STARLINK-11575, 63308

Orbit data source: Space-Track

STARLINK-11575, 63308 is a payload satellite owned by SpaceX/Seattle (US) in LEO that was launched on Tue, 18 Mar 2025 UTC via an FALCON 9 launch vehicle from the Air Force Eastern Test Range (AFETR). Payload-class satellites include a variety of spacecraft equipped with specific instruments for various scientific and technological missions. These include communications satellites like Starlink; space stations such as the ISS; scientific satellites like the Hubble; Earth observation satellites from companies like Planet Labs, Umbra, and HawkEye 360; GPS; miniature CubeSats for education and research; and military/defense satellites.

Loading next visibility...
Identifier
63308, 2025-057B
Orbit
LEO
Last TLE update
10 hours ago
Origin
Manufacturer
SpaceX/Seattle
Mission
Operational Commercial Communications
Bus & Motor
STARLINK V2M, Unknown motor
Mass
730 kg wet, ~700 kg dry
Launch date (UTC)
2025-03-18 (4 months ago)
Launch vehicle
FALCON 9
Launch site
Air Force Eastern Test Range (AFETR)
Object type
Payload
Rocket body
Debris
Shape & HBR
Box + 2 Pan, 29 m
Radar Cross Section
36.964 m², Large (>1 m²)

Expand to show TLE details & history

TLE from 10 hours ago
0 STARLINK-11575
1 63308U 25057B   25183.46796377  .00136239  00000-0  10453-2 0  9996
2 63308  43.0024 332.8384 0003787 280.2585  79.7856 15.70893950 17828
Epoch: 2025-07-02T11:13Z
TLE epoch observation values (Epoch: 2025-07-02T11:13:52.069Z)
Latitude
-0°
Longitude
-116.37719°
Altitude
355.661 km
Speed
7.698 km/s
True Right ascension
22h 11m 21s
True Declination
0° 00' 00"
Sunlit
Object was in full shadow at epoch
Visualization orbit readout
Latitude
6.09747°
Longitude
54.59954°
Altitude
356.159 km
Speed
7.697 km/s
Apparent Right ascension
11h 21m 26s
Apparent Declination
-57° 50' 42"
Sunlit
Object is in daylight
Visualization observer readout
Local Sidereal Time
08:50:49
Azimuth
160.53° S
Elevation
-12.714°
Doppler factor
1
Orbital elements
Apogee altitude
360.873 km
Perigee altitude
355.771 km
Semi-major axis
6,736.459 km
Eccentricity
0.00038
Inclination
43.0024°
RAAN
332.8384°
Arg. of periapsis
280.2585°
True anomaly
Unknown
Mean anomaly
79.7856°
Eccentric anomaly
Unknown
Mean motion
3.92551 °/min
Orbital period
91.71 mins
BSTAR
0.0010453
Loading maneuver chart data...
Loading SW <> Apogee altitude chart data...
Loading historical data...
Loading historical data...
Loading historical data...
Loading historical data...
Loading historical data...
Loading historical data...
Loading historical data...

STARLINK-11575 Visibility forecast

Observer location: undefined°, undefined°

Span
Click to sort rows by Start time (UTC) header in descending order
Start Az.
Max El. time (UTC)
Max El. Az.
Max El.
End time (UTC)
End Az.
5 mins2025-07-03 13:23:40.356Z222.226° SW2025-07-03 13:25:40.356Z166.451° S33.516°2025-07-03 13:28:40.356Z81.132° E
4 mins2025-07-03 15:00:40.356Z286.162° WNW2025-07-03 15:01:40.356Z327.474° NNW37.395°2025-07-03 15:04:40.356Z68.189° E
4 mins2025-07-03 16:36:40.356Z301.216° NW2025-07-03 16:38:40.356Z38.669° NE34.89°2025-07-03 16:40:40.356Z82.286° E
4 mins2025-07-03 18:12:40.356Z273.611° WNW2025-07-03 18:14:40.356Z179.296° S36.658°2025-07-03 18:16:40.356Z130.302° SE
|